Torna al catalogo

BEIDOU 3M27

AttivoNavigazioneMEO
NORAD 61187·PAYLOAD·🇨🇳 China

Lanciato Sep 19, 2024 da Xichang Satellite Launch Center

Loading…

Prossimi Passaggi (prossime 24 ore)

TLE

AggiornatoSource: Space-Track

Epoca: Sep 14, 2026, 22:14 UTC

1 61187U 24168C   26257.92668076 -.00000060  00000-0  00000-0 0  9997
2 61187  54.3856 299.0985 0001003 325.2239  33.4623  1.86230386 10928

Traccia BEIDOU 3M27 in tempo reale con AllMySat

Download on the App Store